User: anonymous
Location: Oshawa
(43.9000°N, 78.8670°W)
Time: 05:26:22
(UTC-04:00)
Language:

Iridium 98 - Orbit

View from above orbital plane
View from above orbital plane
View from above satellite
View from above satellite

Ground track
Ground track

The orbit data is extracted from the following two-line orbital elements,

1 27451U 02031B   14211.47617164  .00000268  00000-0  74140-4 0  4182
2 27451 086.4447 102.3188 0002632 084.3001 329.8122 14.42950281640403
Epoch (UTC): 30 July 2014 11:25:41
Eccentricity: 0.0002632
inclination: 86.4447°
perigee height: 747 km
apogee height: 750 km
right ascension of ascending node: 102.3188°
argument of perigee: 84.3001°
revolutions per day: 14.42950281
mean anomaly at epoch: 329.8122°
orbit number at epoch: 64040

The dashed part of the orbit path shows where the satellite is in the earth's shadow,  

DLR